TimePDT,TemperatureF,Dew PointF,Humidity,Sea Level PressureIn,VisibilityMPH,Wind Direction,Wind SpeedMPH,Gust SpeedMPH,PrecipitationIn,Events,Conditions,WindDirDegrees,DateUTC
12:15 AM,50.0,48.2,94,29.92,10.0,SSE,3.5,-,N/A,,Clear,150,2013-04-23 07:15:00
12:35 AM,50.0,48.2,94,29.92,10.0,SSE,3.5,-,N/A,,Clear,160,2013-04-23 07:35:00
12:55 AM,50.0,46.4,87,29.92,10.0,Calm,Calm,-,N/A,,Clear,0,2013-04-23 07:55:00
1:15 AM,48.2,46.4,93,29.92,10.0,Calm,Calm,-,N/A,,Clear,0,2013-04-23 08:15:00
1:35 AM,48.2,46.4,93,29.91,10.0,Calm,Calm,-,N/A,,Clear,0,2013-04-23 08:35:00
1:55 AM,48.2,48.2,100,29.91,10.0,Calm,Calm,-,N/A,,Clear,0,2013-04-23 08:55:00
2:15 AM,48.2,46.4,93,29.90,10.0,Calm,Calm,-,N/A,,Clear,0,2013-04-23 09:15:00
2:35 AM,46.4,46.4,100,29.90,10.0,Calm,Calm,-,N/A,,Clear,0,2013-04-23 09:35:00
2:55 AM,46.4,46.4,100,29.90,9.0,Calm,Calm,-,N/A,,Clear,0,2013-04-23 09:55:00
3:15 AM,46.4,44.6,93,29.90,10.0,Calm,Calm,-,N/A,,Clear,0,2013-04-23 10:15:00
3:35 AM,46.4,44.6,93,29.90,10.0,Calm,Calm,-,N/A,,Clear,0,2013-04-23 10:35:00
3:55 AM,46.4,44.6,93,29.90,10.0,Calm,Calm,-,N/A,,Clear,0,2013-04-23 10:55:00
4:15 AM,46.4,44.6,93,29.91,10.0,Calm,Calm,-,N/A,,Clear,0,2013-04-23 11:15:00
4:35 AM,46.4,44.6,93,29.91,10.0,Calm,Calm,-,N/A,,Clear,0,2013-04-23 11:35:00
4:55 AM,44.6,44.6,100,29.91,10.0,Calm,Calm,-,N/A,,Mostly Cloudy,0,2013-04-23 11:55:00
5:15 AM,44.6,44.6,100,29.91,10.0,ESE,3.5,-,N/A,,Overcast,120,2013-04-23 12:15:00
5:35 AM,46.4,44.6,93,29.91,10.0,Calm,Calm,-,N/A,,Overcast,0,2013-04-23 12:35:00
5:55 AM,44.6,44.6,100,29.91,9.0,Calm,Calm,-,N/A,,Overcast,0,2013-04-23 12:55:00
6:15 AM,44.6,44.6,100,29.92,0.2,Calm,Calm,-,N/A,Fog,Fog,0,2013-04-23 13:15:00
6:35 AM,44.6,44.6,100,29.93,0.2,Calm,Calm,-,N/A,Fog,Fog,0,2013-04-23 13:35:00
6:55 AM,44.6,44.6,100,29.93,0.2,Calm,Calm,-,N/A,Fog,Fog,0,2013-04-23 13:55:00
7:15 AM,44.6,44.6,100,29.93,0.2,Calm,Calm,-,N/A,Fog,Fog,0,2013-04-23 14:15:00
7:35 AM,44.6,44.6,100,29.94,0.2,SSE,3.5,-,N/A,Fog,Fog,150,2013-04-23 14:35:00
7:55 AM,44.6,44.6,100,29.95,0.5,SE,3.5,-,N/A,Fog,Fog,140,2013-04-23 14:55:00
8:15 AM,46.4,46.4,100,29.95,0.2,SSE,4.6,-,N/A,Fog,Fog,150,2013-04-23 15:15:00
8:35 AM,48.2,48.2,100,29.95,5.0,SSE,3.5,-,N/A,,Scattered Clouds,150,2013-04-23 15:35:00
8:55 AM,50.0,50.0,100,29.95,9.0,South,5.8,-,N/A,,Clear,170,2013-04-23 15:55:00
9:15 AM,53.6,48.2,82,29.95,9.0,SSE,4.6,-,N/A,,Clear,160,2013-04-23 16:15:00
9:35 AM,55.4,48.2,77,29.96,10.0,SSE,6.9,-,N/A,,Clear,160,2013-04-23 16:35:00
9:55 AM,59.0,46.4,63,29.95,10.0,SSE,5.8,-,N/A,,Clear,160,2013-04-23 16:55:00
10:15 AM,60.8,46.4,59,29.96,10.0,South,4.6,-,N/A,,Clear,170,2013-04-23 17:15:00
10:35 AM,64.4,46.4,52,29.96,10.0,South,4.6,-,N/A,,Clear,180,2013-04-23 17:35:00
10:55 AM,66.2,44.6,46,29.95,10.0,South,4.6,-,N/A,,Clear,180,2013-04-23 17:55:00
11:15 AM,69.8,41.0,35,29.95,10.0,SSE,5.8,-,N/A,,Clear,160,2013-04-23 18:15:00
11:35 AM,71.6,41.0,33,29.95,10.0,SE,6.9,-,N/A,,Clear,140,2013-04-23 18:35:00
11:55 AM,73.4,39.2,29,29.94,10.0,SSE,3.5,-,N/A,,Clear,150,2013-04-23 18:55:00
12:15 PM,75.2,37.4,25,29.94,10.0,SE,3.5,-,N/A,,Clear,130,2013-04-23 19:15:00
12:35 PM,75.2,37.4,25,29.93,10.0,NW,3.5,-,N/A,,Clear,320,2013-04-23 19:35:00
12:55 PM,77.0,28.4,17,29.93,10.0,Calm,Calm,-,N/A,,Clear,0,2013-04-23 19:55:00
1:15 PM,78.8,28.4,16,29.92,10.0,NW,4.6,-,N/A,,Clear,310,2013-04-23 20:15:00
1:35 PM,78.8,28.4,16,29.91,10.0,West,5.8,-,N/A,,Clear,270,2013-04-23 20:35:00
1:55 PM,80.6,28.4,15,29.91,10.0,East,3.5,-,N/A,,Clear,90,2013-04-23 20:55:00
2:15 PM,80.6,26.6,14,29.91,10.0,Calm,Calm,-,N/A,,Clear,0,2013-04-23 21:15:00
2:35 PM,82.4,28.4,14,29.90,10.0,NW,6.9,-,N/A,,Clear,320,2013-04-23 21:35:00
2:55 PM,82.4,28.4,14,29.89,10.0,West,4.6,-,N/A,,Clear,280,2013-04-23 21:55:00
3:15 PM,82.4,28.4,14,29.89,10.0,WNW,5.8,-,N/A,,Clear,300,2013-04-23 22:15:00
3:35 PM,82.4,26.6,13,29.88,10.0,West,6.9,-,N/A,,Clear,270,2013-04-23 22:35:00
3:55 PM,84.2,28.4,13,29.87,10.0,NW,8.1,-,N/A,,Clear,310,2013-04-23 22:55:00
4:15 PM,84.2,28.4,13,29.86,10.0,North,3.5,-,N/A,,Clear,10,2013-04-23 23:15:00
4:35 PM,84.2,28.4,13,29.86,10.0,Calm,Calm,-,N/A,,Clear,0,2013-04-23 23:35:00
4:55 PM,80.6,48.2,32,29.86,10.0,SE,11.5,-,N/A,,Clear,140,2013-04-23 23:55:00
5:15 PM,77.0,48.2,36,29.85,10.0,SSE,13.8,-,N/A,,Clear,150,2013-04-24 00:15:00
5:35 PM,75.2,48.2,38,29.87,10.0,South,10.4,-,N/A,,Clear,180,2013-04-24 00:35:00
5:55 PM,73.4,48.2,41,29.87,10.0,South,9.2,-,N/A,,Clear,170,2013-04-24 00:55:00
6:15 PM,68.0,48.2,49,29.87,10.0,SSE,13.8,-,N/A,,Clear,150,2013-04-24 01:15:00
6:35 PM,66.2,48.2,52,29.88,10.0,SSE,11.5,-,N/A,,Clear,150,2013-04-24 01:35:00
6:55 PM,64.4,48.2,56,29.89,10.0,SE,13.8,-,N/A,,Clear,130,2013-04-24 01:55:00
7:15 PM,60.8,48.2,63,29.89,10.0,SE,12.7,-,N/A,,Clear,130,2013-04-24 02:15:00
7:35 PM,59.0,48.2,67,29.91,10.0,SE,10.4,-,N/A,,Clear,140,2013-04-24 02:35:00
7:55 PM,55.4,48.2,77,29.92,10.0,SE,10.4,-,N/A,,Clear,140,2013-04-24 02:55:00
8:10 PM,55.4,48.2,77,29.92,10.0,SSE,11.5,-,N/A,,Clear,150,2013-04-24 03:10:00
8:35 PM,53.6,48.2,82,29.93,10.0,SSE,8.1,-,N/A,,Clear,160,2013-04-24 03:35:00
8:55 PM,53.6,48.2,82,29.94,10.0,SE,9.2,-,N/A,,Clear,140,2013-04-24 03:55:00
9:15 PM,53.6,48.2,82,29.95,10.0,SE,9.2,-,N/A,,Clear,140,2013-04-24 04:15:00
9:35 PM,51.8,48.2,88,29.96,10.0,SE,8.1,-,N/A,,Clear,130,2013-04-24 04:35:00
9:55 PM,51.8,48.2,88,29.96,10.0,SE,10.4,-,N/A,,Clear,140,2013-04-24 04:55:00
10:15 PM,50.0,48.2,94,29.96,10.0,SE,9.2,-,N/A,,Clear,130,2013-04-24 05:15:00
10:35 PM,50.0,50.0,100,29.96,10.0,SE,9.2,-,N/A,,Clear,130,2013-04-24 05:35:00
10:55 PM,50.0,50.0,100,29.95,10.0,SE,6.9,-,N/A,,Clear,130,2013-04-24 05:55:00
11:15 PM,50.0,50.0,100,29.95,10.0,SE,6.9,-,N/A,,Mostly Cloudy,130,2013-04-24 06:15:00
11:35 PM,51.8,50.0,94,29.94,10.0,SE,5.8,-,N/A,,Overcast,140,2013-04-24 06:35:00
11:55 PM,51.8,50.0,94,29.94,10.0,South,5.8,-,N/A,,Overcast,170,2013-04-24 06:55:00